Slocum Drake on mission Arctic PRIZE 2 Piloting

  • Deployed: 2018/01/11 13:00:00 UTC (644 days ago) by Marie Porter
  • Recovered: 2018/04/26 14:00:00 UTC (539 days ago) by Marie Porter
  • Time at Sea: 3 months
  • Profiles Performed: 3432

Near Real-Time Data

 
backscatter
cdom
chlorophyll
depth
leakdetect
leakdetect forward
oxygen
potential_density
salinity
speed
temperature
 
 
 
Depth 24hr

Communication Log

# Updated Depth Speed Plots
1368050 2018-04-24 23:47:13 UTC (540 days ago)
1368035 2018-04-24 23:05:09 UTC (540 days ago)
1368040 2018-04-24 23:04:04 UTC (540 days ago)
1368032 2018-04-24 22:52:04 UTC (540 days ago)
1368030 2018-04-24 22:44:27 UTC (540 days ago)
1368028 2018-04-24 22:36:27 UTC (540 days ago)
1368008 2018-04-24 22:03:11 UTC (540 days ago)
1368010 2018-04-24 22:03:02 UTC (540 days ago)
1368005 2018-04-24 21:57:53 UTC (540 days ago)
1368003 2018-04-24 21:55:41 UTC (540 days ago)
1367999 2018-04-24 21:18:28 UTC (541 days ago)
1367988 2018-04-24 21:06:32 UTC (541 days ago)
1367979 2018-04-24 20:54:27 UTC (541 days ago)
1367981 2018-04-24 20:52:42 UTC (541 days ago)
1367970 2018-04-24 20:24:38 UTC (541 days ago)
1367966 2018-04-24 20:18:45 UTC (541 days ago)
1367959 2018-04-24 19:53:15 UTC (541 days ago)
1367943 2018-04-24 19:10:08 UTC (541 days ago)
1367934 2018-04-24 18:51:33 UTC (541 days ago)
1367932 2018-04-24 18:46:58 UTC (541 days ago)